MyTimes logo

TIMES

Webb Imagery

7/02/2004
Channel Challenge
550m Swim / 2.0km Run - Local Residents

(Click on competitor name to view personalised results)

Name
Race #
Category
Time
(h:mm:ss)
Avg Speed
km/hr
OAll
Place
Cat
Place
EVANS Brad#146Local Senior Male0:12:44 12 11
PAGE Tiler#589Local Male 40-490:12:49 11.9 21
FLEISNER Rob#574Local Male 40-490:12:54 11.9 32
NOBLE James#208Local Senior Male0:13:07 11.7 42
MC GRATH Stephanie#349Local Senior Female0:13:09 11.6 51
YUSKO Bill#602Local Male 50+0:13:30 11.3 61
MC HENRY David#516Local Junior Male0:13:51 11 71
GARRETT Geoff#71Local Senior Male0:13:54 11 83
FOWLER Jay#505Local Junior Male0:14:03 10.9 92
DONOHUE Dale#623Local Junior Male0:14:08 10.8 103
DALLINGER Chris#96Local Senior Male0:14:12 10.8 114
SORATI Ty#512Local Junior Male0:14:16 10.7 124
LUNN Daniel#169Local Senior Male0:14:31 10.5 135
HEWETT Noel#566Local Male 40-490:14:32 10.5 143
DALLINGER Chris#99Local Senior Male0:14:35 10.5 156
MARSHALL Luke#94Local Senior Male0:14:43 10.4 167
OSMOND Travis#168Local Senior Male0:14:57 10.2 178
KERR Lewis#506Local Junior Male0:15:11 10.1 185
COYNE Gavin#178Local Senior Male0:15:15 10 199
JUDD Gary#578Local Male 40-490:15:19 10 204
HARBISON Derek#584Local Male 40-490:15:19 10 215
HOMER Ivan#561Local Male 40-490:15:30 9.9 226
FISHER Kevin#576Local Male 40-490:15:35 9.8 237
MATTHEWS Jack#514Local Junior Male0:15:35 9.8 246
EVANS Bree#344Local Senior Female0:15:39 9.8 252
FRASER Benjamin#508Local Junior Male0:15:40 9.8 267
MONAGHAN Matt#118Local Senior Male0:15:42 9.7 2710
WATERSON David#85Local Senior Male0:15:43 9.7 2811
BUTT Chloe#313Local Junior Female0:15:46 9.7 291
DAVIE Angie#306Local Female 40-490:15:47 9.7 301
MASON John#556Local Male 40-490:15:48 9.7 318
BURNS Chase#140Local Senior Male0:15:52 9.6 3212
FOSTIN Nick#107Local Senior Male0:15:56 9.6 3313
HUGHES Jed#629Local Junior Male0:15:56 9.6 348
CAMPBELL Sean#624Local Junior Male0:15:57 9.6 359
RYAN Daniel#163Local Senior Male0:15:58 9.6 3614
CARTER Lachlan#507Local Junior Male0:16:02 9.5 3710
TREVENA Martin#81Local Senior Male0:16:14 9.4 3815
FLEISNER Paul#542Local Male 50+0:16:15 9.4 392
CARTER Dean#549Local Male 50+0:16:30 9.3 403
THURGOOD Neville#27Local Senior Male0:16:31 9.3 4116
SUNDERLAND Peter#580Local Male 40-490:16:31 9.3 429
DAFF Geoff#564Local Male 50+0:16:31 9.3 434
HORNSBY Tony#97Local Senior Male0:16:33 9.2 4417
HILL Jessica#352Local Junior Female0:16:33 9.2 452
MANNING John#95Local Senior Male0:16:36 9.2 4618
MC FEE Andy#181Local Senior Male0:16:37 9.2 4719
EISEN Nat#515Local Junior Male0:16:42 9.2 4811
KEADY Richard#642Local Male 50+0:16:43 9.2 495
JALANDO-ON Rio#182Local Senior Male0:16:48 9.1 5020
O'HEA Esther#425Local Junior Female0:16:54 9.1 513
WYNNE Simon#122Local Senior Male0:16:56 9 5221
LOWE Darren#53Local Senior Male0:16:57 9 5322
CAMERON Jane#362Local Female 40-490:16:58 9 542
TANCHOFF Brian#597Local Male 40-490:16:59 9 5510
DALLINGER Brian#551Local Male 50+0:17:04 9 566
COLE Nicholas#183Local Senior Male0:17:14 8.9 5723
MATTHEWS Robert#552Local Male 50+0:17:14 8.9 587
SUTHERLAND Michael#152Local Senior Male0:17:16 8.9 5924
SMITH Matthew#511Local Senior Male0:17:23 8.8 6025
FOSTIN Bianca#374Local Senior Female0:17:24 8.8 613
CUTHBERTON Diddy#388Local Senior Female0:17:31 8.7 624
ROOKS David#34Local Senior Male0:17:37 8.7 6326
MARTIN Peter#528Local Male 40-490:17:37 8.7 6411
HUGHES Caitlin#423Local Junior Female0:17:42 8.6 654
KELSEY David#136Local Senior Male0:17:43 8.6 6627
PRICE Brode#573Local Junior Male0:17:48 8.6 6712
STOOPMAN Jo#396Local Senior Female0:17:53 8.6 685
MANNING Simon#565Local Male 40-490:17:54 8.5 6912
JAMIESON Mark#579Local Male 40-490:17:56 8.5 7013
PLATT Wayne#72Local Senior Male0:18:00 8.5 7128
GODING Lindsay#165Local Senior Male0:18:06 8.5 7229
DIXON Michael#562Local Male 40-490:18:10 8.4 7314
SMITH Paul#559Local Male 50+0:18:11 8.4 748
WILKINSON Michael#145Local Senior Male0:18:14 8.4 7530
CANDIAN Tara#380Local Senior Female0:18:14 8.4 766
ADNAM Sian#301Local Female 40-490:18:20 8.3 773
EVANS Kym#402Local Senior Female0:18:27 8.3 787
ADAMS Simon#598Local Male 40-490:18:30 8.3 7915
MERTENS Jennifer#317Local Junior Female0:18:33 8.2 805
FENECH Shane#100Local Senior Male0:18:35 8.2 8131
HALL Kerri#366Local Senior Female0:18:37 8.2 828
HOPKINS Barry#560Local Male 40-490:18:40 8.2 8316
MILLER Brooke#433Local Senior Female0:18:46 8.2 849
RICHENS Michelle#430Local Senior Female0:18:53 8.1 8510
FITZGERALD Amy#405Local Senior Female0:19:16 7.9 8611
KIMBER Chris#655Local Male 40-490:19:19 7.9 8717
HUGHES Bronwyn#424Local Female 40-490:19:20 7.9 884
JOHNSTON Brian#651Local Male 40-490:19:38 7.8 8918
THORN Lyndal#357Local Senior Female0:19:44 7.8 9012
CHASTON Peter#563Local Male 40-490:19:45 7.7 9119
ADAMS Murray#592Local Male 50+0:19:46 7.7 929
MORRISON Kerry#365Local Female 40-490:19:48 7.7 935
O'KEEFE Louise#337Local Senior Female0:19:50 7.7 9413
JONES Penny#315Local Junior Female0:20:08 7.6 956
ABLETT Zachary#143Local Senior Male0:20:13 7.6 9632
CARIAL Joe#571Local Male 40-490:20:15 7.6 9720
FLETCHER Michael#517Local Male 40-490:20:16 7.5 9821
CANDIAN Haylie#381Local Senior Female0:20:21 7.5 9914
O'DONOHUE Mark#612Local Male 40-490:20:38 7.4 10022
PATKIN Kate#407Local Senior Female0:20:42 7.4 10115
KEATING Liam#57Local Senior Male0:21:10 7.2 10233
WRIGHT Bruce#37Local Senior Male0:21:22 7.2 10334
MARTIN Brian#523Local Senior Male0:21:23 7.2 10435
WALKER Christine#307Local Female 50+0:21:28 7.1 1051
LOWE Sally#399Local Senior Female0:21:49 7 10616
HIBBLE Jenny#351Local Female 40-490:22:13 6.9 1076
KEWMING Robyn#418Local Female 40-490:23:23 6.5 1087
REEK George#570Local Male 50+0:24:13 6.3 10910
WEIR Turtle#569Local Male 50+0:24:42 6.2 11011
WING Rebecca#334Local Senior Female0:24:52 6.2 11117
CRUICKSHANK Glenn#114Local Senior Male0:25:43 5.9 11236
PETERS Derek#130Local Senior Male0:26:28 5.8 11337